Regional Weather Roundup
Issued by NWS

Home | Current Version | Previous Version | Graphics & Text | Print | Product List | Glossary On
Versions: 1 2 3 4 5 6 7 8 9 10 11 12 13 14 15 16 17 18 19 20 21 22 23 24 25 26 27 28 29 30 31 32 33 34 35 36 37 38 39 40 41 42 43 44 45 46 47 48 49 50
000
ASUS43 KLSX 030707
RWRMO

WEATHER SUMMARY FOR MISSOURI
NATIONAL WEATHER SERVICE SPRINGFIELD MO
200 AM CDT SUN MAY 03 2015

NOTE: "FAIR" INDICATES FEW OR NO CLOUDS BELOW 12,000 FEET WITH NO
       SIGNIFICANT WEATHER AND/OR OBSTRUCTIONS TO VISIBILITY.
       CURRENT SKY AND/OR WEATHER CONDITIONS ARE NOT AVAILABLE FOR
       CHILLICOTHE AND FARMINGTON.

MOZ001>031-035>038-043-044-053-054-030800-
...NORTHERN AND WESTERN MISSOURI...

CITY           SKY/WX    TMP DP  RH WIND       PRES   REMARKS
KANSAS CTY INT CLOUDY    66  52  60 S15       29.88S
KANSAS C DTWN  CLOUDY    69  52  54 S13       29.88S
LEE`S SUMMIT   CLOUDY    65  52  62 S12       29.91S
ST JOSEPH      CLOUDY    66  54  65 S10       29.85F
CHILLICOTHE      N/A     59  52  77 S5        29.92R
KIRKSVILLE     MOCLDY    54  51  90 S6        29.93F

$$
MOZ066>068-077>081-088>096-101>105-030800-
...SOUTHWEST MISSOURI...

CITY           SKY/WX    TMP DP  RH WIND       PRES   REMARKS
SPRINGFIELD    PTCLDY    60  49  66 S10       29.98S
JOPLIN         CLEAR     63  51  65 S10       29.96S

$$
MOZ032>034-039>042-045>050-055>058-069>072-030800-
...CENTRAL MISSOURI...

CITY           SKY/WX    TMP DP  RH WIND       PRES   REMARKS
COLUMBIA       MOCLDY    62  48  60 S9        29.96F
JEFFERSON CITY MOCLDY    64  45  49 E5        29.97S
ROLLA          MOCLDY    64  42  44 S12       29.98F
SEDALIA        CLOUDY    59  50  72 S7        29.95S
WHITEMAN AFB   CLOUDY    60  52  74 S8        29.92S
WARRENSBURG    CLOUDY    61  50  67 S5        29.92S
OSAGE BEACH    PTCLDY    61  45  55 S6        29.97S

$$
MOZ051-052-059>065-030800-
...EAST CENTRAL MISSOURI...

CITY           SKY/WX    TMP DP  RH WIND       PRES   REMARKS
ST LOUIS INTL  CLOUDY    68  43  40 S8        30.00S
SPIRIT OF STL  CLOUDY    62  46  55 CALM      29.99R
ST CHARLES     CLOUDY    63  50  62 SE5       29.99R

$$
MOZ072>076-082>087-097>100-106>115-030800-
...SOUTH CENTRAL AND SOUTHEAST MISSOURI...

CITY           SKY/WX    TMP DP  RH WIND       PRES   REMARKS
CAPE GIRARDEAU MOCLDY    55  48  77 S8        30.03S
FARMINGTON     CLOUDY    61  43  51 S6        30.06S
POPLAR BLUFF   MOCLDY    57  52  83 CALM      30.02F
WEST PLAINS    MOCLDY    63  43  48 S6        30.04S

$$


USA.gov is the U.S. government's official web portal to all federal, state and local government web resources and services.